This is the latest recevied weather packets stored in our database for station/object IK2ILW-4. If no packets are shown the sender has not sent any weather packets the latest 10 day(s).
| Time | Temp. | Humidity | Pressure | Rain* | Wind** | Luminosity | Snow |
|---|---|---|---|---|---|---|---|
| 1778063555 | 6.67° C | 92% | 1011 hPa | 14.48 mm | - | 65 W/m² | - |
| 1778063257 | 6.67° C | 96% | 1011.1 hPa | 14.48 mm | - | 102 W/m² | - |
| 1778062956 | 6.67° C | 97% | 1011.1 hPa | 14.48 mm | - | 139 W/m² | - |
| 1778062653 | 6.11° C | 98% | 1011.1 hPa | 14.48 mm | - | 69 W/m² | - |
| 1778062373 | 6.11° C | 98% | 1011.4 hPa | 14.48 mm | - | 72 W/m² | - |
| 1778062068 | 6.11° C | 98% | 1011.4 hPa | 14.48 mm | - | 56 W/m² | - |
| 1778061764 | 5.56° C | 98% | 1011.4 hPa | 14.48 mm | - | 102 W/m² | - |
| 1778061160 | 5.56° C | 98% | 1011.2 hPa | 14.48 mm | - | 62 W/m² | - |
| 1778060860 | 5° C | 98% | 1011.2 hPa | 14.48 mm | - | 97 W/m² | - |
| 1778060560 | 5° C | 98% | 1011.1 hPa | 14.48 mm | - | 56 W/m² | - |
| 1778060256 | 5° C | 98% | 1011.1 hPa | 14.22 mm | - | 42 W/m² | - |
| 1778059972 | 5° C | 98% | 1011.1 hPa | 13.72 mm | - | 28 W/m² | - |
| 1778059667 | 5° C | 98% | 1010.7 hPa | 13.21 mm | - | 51 W/m² | - |
| 1778059363 | 5° C | 98% | 1010.7 hPa | 12.95 mm | - | 63 W/m² | - |
| 1778059068 | 5° C | 98% | 1010.7 hPa | 12.7 mm | - | 25 W/m² | - |
| 1778058767 | 5° C | 98% | 1010.6 hPa | 11.94 mm | - | 25 W/m² | - |
| 1778058463 | 5° C | 98% | 1010.6 hPa | 11.43 mm | - | 25 W/m² | - |
| 1778058159 | 5° C | 98% | 1010.6 hPa | 11.18 mm | - | 49 W/m² | - |
| 1778057855 | 5° C | 98% | 1010.5 hPa | 10.92 mm | - | 35 W/m² | - |
| 1778057554 | 5° C | 98% | 1010.5 hPa | 10.67 mm | - | 30 W/m² | - |
| 1778057250 | 5.56° C | 98% | 1010.5 hPa | 9.91 mm | - | 32 W/m² | - |
| 1778056971 | 5.56° C | 98% | 1010.5 hPa | 9.91 mm | - | 30 W/m² | - |
| 1778056667 | 5.56° C | 98% | 1010.5 hPa | 9.91 mm | - | 40 W/m² | - |
| 1778056364 | 5.56° C | 98% | 1010.5 hPa | 9.91 mm | - | 76 W/m² | - |
| 1778056060 | 5.56° C | 98% | 1010.5 hPa | 9.91 mm | - | 109 W/m² | - |
* Rain since midnight (hover to see other rain measurements)
** Current wind speed in m/s (hover to see current wind gust speed)